Time,TemperatureF,DewpointF,PressureIn,WindDirection,WindDirectionDegrees,WindSpeedMPH,WindSpeedGustMPH,Humidity,HourlyPrecipIn,Conditions,Clouds,dailyrainin,SoftwareType,DateUTC
2013-05-06 00:01:00,61.8,61.5,29.07,East,90,3.0,16.0,98,0.00,,,0.00,Rainwise IP-100,2013-05-06 04:01:00,
2013-05-06 00:06:00,61.9,61.5,29.07,East,90,7.0,15.0,98,0.00,,,0.00,Rainwise IP-100,2013-05-06 04:06:00,
2013-05-06 00:10:00,61.9,61.5,29.08,SE,135,5.0,12.0,98,0.00,,,0.00,Rainwise IP-100,2013-05-06 04:10:00,
2013-05-06 00:11:00,61.9,61.5,29.08,SE,135,5.0,12.0,98,0.00,,,0.00,Rainwise IP-100,2013-05-06 04:11:00,
2013-05-06 00:13:00,61.9,61.5,29.07,NE,45,14.0,14.0,98,0.00,,,0.00,Rainwise IP-100,2013-05-06 04:13:00,
2013-05-06 00:18:00,61.8,61.5,29.08,ESE,112,7.0,14.0,98,0.00,,,0.00,Rainwise IP-100,2013-05-06 04:18:00,
2013-05-06 00:23:00,61.8,61.5,29.08,ESE,112,7.0,16.0,98,0.06,,,0.01,Rainwise IP-100,2013-05-06 04:23:00,
2013-05-06 00:28:00,61.6,61.0,29.08,SE,135,9.0,10.0,98,0.06,,,0.01,Rainwise IP-100,2013-05-06 04:28:00,
2013-05-06 00:33:00,61.7,61.0,29.08,ESE,112,15.0,19.0,98,0.00,,,0.01,Rainwise IP-100,2013-05-06 04:33:00,
2013-05-06 00:38:00,61.8,61.5,29.08,ESE,112,5.0,21.0,98,0.00,,,0.01,Rainwise IP-100,2013-05-06 04:38:00,
2013-05-06 00:43:00,61.7,61.0,29.08,SE,135,4.0,16.0,98,0.00,,,0.01,Rainwise IP-100,2013-05-06 04:43:00,
2013-05-06 00:48:00,61.7,61.0,29.08,SE,135,11.0,18.0,98,0.00,,,0.01,Rainwise IP-100,2013-05-06 04:48:00,
2013-05-06 00:53:00,61.6,61.0,29.09,SE,135,9.0,12.0,98,0.00,,,0.01,Rainwise IP-100,2013-05-06 04:53:00,
2013-05-06 00:58:00,61.6,61.0,29.09,East,90,2.0,15.0,98,0.00,,,0.01,Rainwise IP-100,2013-05-06 04:58:00,
2013-05-06 01:03:00,61.5,61.0,29.09,ESE,112,2.0,12.0,98,0.00,,,0.01,Rainwise IP-100,2013-05-06 05:03:00,
2013-05-06 01:08:00,61.5,61.0,29.09,SE,135,16.0,16.0,98,0.00,,,0.01,Rainwise IP-100,2013-05-06 05:08:00,
2013-05-06 01:13:00,61.5,61.0,29.09,ESE,112,5.0,16.0,98,0.06,,,0.02,Rainwise IP-100,2013-05-06 05:13:00,
2013-05-06 01:18:00,61.5,61.0,29.09,East,90,9.0,13.0,98,0.06,,,0.02,Rainwise IP-100,2013-05-06 05:18:00,
2013-05-06 01:23:00,61.4,61.0,29.09,South,180,2.0,9.0,98,0.00,,,0.02,Rainwise IP-100,2013-05-06 05:23:00,
2013-05-06 01:28:00,61.3,61.0,29.09,SSE,157,4.0,12.0,98,0.00,,,0.02,Rainwise IP-100,2013-05-06 05:28:00,
2013-05-06 01:33:00,61.2,60.5,29.08,SSE,157,2.0,9.0,98,0.00,,,0.02,Rainwise IP-100,2013-05-06 05:33:00,
2013-05-06 01:38:00,61.1,60.5,29.08,SE,135,1.0,6.0,98,0.12,,,0.04,Rainwise IP-100,2013-05-06 05:38:00,
2013-05-06 01:43:00,61.0,60.5,29.08,ESE,112,1.0,7.0,98,0.30,,,0.07,Rainwise IP-100,2013-05-06 05:43:00,
2013-05-06 01:48:00,60.9,60.5,29.08,ESE,112,1.0,5.0,98,0.30,,,0.09,Rainwise IP-100,2013-05-06 05:48:00,
2013-05-06 01:53:00,60.9,60.5,29.08,SE,135,1.0,4.0,98,0.24,,,0.11,Rainwise IP-100,2013-05-06 05:53:00,
2013-05-06 01:58:00,60.9,60.5,29.07,SSE,157,1.0,7.0,98,0.24,,,0.13,Rainwise IP-100,2013-05-06 05:58:00,
2013-05-06 02:03:00,60.9,60.5,29.07,SE,135,4.0,4.0,98,0.24,,,0.15,Rainwise IP-100,2013-05-06 06:03:00,
2013-05-06 02:08:00,60.8,60.5,29.07,SE,135,2.0,6.0,98,0.12,,,0.15,Rainwise IP-100,2013-05-06 06:08:00,
2013-05-06 02:13:00,60.9,60.5,29.07,SSE,157,1.0,6.0,98,0.06,,,0.16,Rainwise IP-100,2013-05-06 06:13:00,
2013-05-06 02:18:00,60.9,60.5,29.06,ESE,112,2.0,8.0,98,0.06,,,0.16,Rainwise IP-100,2013-05-06 06:18:00,
2013-05-06 02:23:00,60.9,60.5,29.06,SSE,157,1.0,11.0,98,0.00,,,0.16,Rainwise IP-100,2013-05-06 06:23:00,
2013-05-06 02:28:00,60.9,60.5,29.06,SE,135,11.0,14.0,98,0.00,,,0.16,Rainwise IP-100,2013-05-06 06:28:00,
2013-05-06 02:33:00,60.9,60.5,29.06,SE,135,8.0,12.0,98,0.00,,,0.16,Rainwise IP-100,2013-05-06 06:33:00,
2013-05-06 02:38:00,61.1,60.5,29.05,ESE,112,2.0,12.0,98,0.00,,,0.16,Rainwise IP-100,2013-05-06 06:38:00,
2013-05-06 02:43:00,61.0,60.5,29.06,ESE,112,8.0,16.0,98,0.06,,,0.17,Rainwise IP-100,2013-05-06 06:43:00,
2013-05-06 02:48:00,60.9,60.5,29.06,SE,135,2.0,9.0,98,0.12,,,0.18,Rainwise IP-100,2013-05-06 06:48:00,
2013-05-06 02:53:00,60.9,60.5,29.06,SE,135,2.0,7.0,98,0.06,,,0.18,Rainwise IP-100,2013-05-06 06:53:00,
2013-05-06 02:58:00,60.9,60.5,29.06,SW,225,2.0,4.0,98,0.00,,,0.18,Rainwise IP-100,2013-05-06 06:58:00,
2013-05-06 03:03:00,60.9,60.5,29.07,SW,225,4.0,8.0,98,0.00,,,0.18,Rainwise IP-100,2013-05-06 07:03:00,
2013-05-06 03:08:00,60.9,60.5,29.07,ESE,112,2.0,6.0,98,0.06,,,0.19,Rainwise IP-100,2013-05-06 07:08:00,
2013-05-06 03:13:00,60.9,60.5,29.06,SSW,202,2.0,7.0,98,0.06,,,0.19,Rainwise IP-100,2013-05-06 07:13:00,
2013-05-06 03:18:00,60.9,60.5,29.07,SE,135,2.0,4.0,98,0.00,,,0.19,Rainwise IP-100,2013-05-06 07:18:00,
2013-05-06 03:23:00,60.9,60.5,29.07,SE,135,6.0,6.0,98,0.06,,,0.20,Rainwise IP-100,2013-05-06 07:23:00,
2013-05-06 03:28:00,60.9,60.5,29.07,WSW,247,2.0,6.0,98,0.06,,,0.20,Rainwise IP-100,2013-05-06 07:28:00,
2013-05-06 03:33:00,61.0,60.5,29.06,ESE,112,3.0,7.0,98,0.06,,,0.21,Rainwise IP-100,2013-05-06 07:33:00,
2013-05-06 03:38:00,61.1,60.5,29.06,SE,135,2.0,11.0,98,0.06,,,0.22,Rainwise IP-100,2013-05-06 07:38:00,
2013-05-06 03:43:00,61.0,60.5,29.06,ENE,67,6.0,8.0,98,0.12,,,0.23,Rainwise IP-100,2013-05-06 07:43:00,
2013-05-06 03:48:00,60.9,60.5,29.05,SE,135,4.0,7.0,98,0.18,,,0.24,Rainwise IP-100,2013-05-06 07:48:00,
2013-05-06 03:53:00,60.9,60.5,29.05,SE,135,2.0,8.0,98,0.12,,,0.25,Rainwise IP-100,2013-05-06 07:53:00,
2013-05-06 03:58:00,60.9,60.5,29.06,WSW,247,1.0,4.0,98,0.06,,,0.25,Rainwise IP-100,2013-05-06 07:58:00,
2013-05-06 04:03:00,60.9,60.5,29.06,SSE,157,1.0,3.0,98,0.00,,,0.25,Rainwise IP-100,2013-05-06 08:03:00,
2013-05-06 04:08:00,60.9,60.5,29.06,SSW,202,1.0,3.0,98,0.00,,,0.25,Rainwise IP-100,2013-05-06 08:08:00,
2013-05-06 04:13:00,60.9,60.5,29.06,SE,135,2.0,4.0,98,0.00,,,0.25,Rainwise IP-100,2013-05-06 08:13:00,
2013-05-06 04:18:00,60.9,60.5,29.06,SE,135,1.0,2.0,98,0.00,,,0.25,Rainwise IP-100,2013-05-06 08:18:00,
2013-05-06 04:23:00,60.9,60.5,29.06,ESE,112,1.0,4.0,98,0.00,,,0.25,Rainwise IP-100,2013-05-06 08:23:00,
2013-05-06 04:28:00,60.9,60.5,29.06,SSE,157,1.0,2.0,98,0.00,,,0.25,Rainwise IP-100,2013-05-06 08:28:00,
2013-05-06 04:33:00,60.9,60.5,29.06,South,180,1.0,2.0,98,0.00,,,0.25,Rainwise IP-100,2013-05-06 08:33:00,
2013-05-06 04:38:00,60.9,60.5,29.06,South,180,1.0,2.0,98,0.00,,,0.25,Rainwise IP-100,2013-05-06 08:38:00,
2013-05-06 04:43:00,60.9,60.5,29.06,South,180,2.0,3.0,98,0.00,,,0.25,Rainwise IP-100,2013-05-06 08:43:00,
2013-05-06 04:48:00,60.9,60.5,29.06,South,180,0.0,2.0,98,0.00,,,0.25,Rainwise IP-100,2013-05-06 08:48:00,
2013-05-06 04:53:00,60.9,60.5,29.05,ESE,112,2.0,2.0,98,0.00,,,0.25,Rainwise IP-100,2013-05-06 08:53:00,
2013-05-06 04:58:00,60.8,60.5,29.05,East,90,2.0,4.0,98,0.00,,,0.25,Rainwise IP-100,2013-05-06 08:58:00,
2013-05-06 05:03:00,60.6,60.0,29.05,ESE,112,2.0,4.0,98,0.00,,,0.25,Rainwise IP-100,2013-05-06 09:03:00,
2013-05-06 05:08:00,60.5,60.0,29.05,ESE,112,2.0,3.0,98,0.00,,,0.25,Rainwise IP-100,2013-05-06 09:08:00,
2013-05-06 05:13:00,60.4,60.0,29.05,South,180,0.0,3.0,98,0.00,,,0.25,Rainwise IP-100,2013-05-06 09:13:00,
2013-05-06 05:18:00,60.3,60.0,29.05,ESE,112,0.0,2.0,98,0.00,,,0.25,Rainwise IP-100,2013-05-06 09:18:00,
2013-05-06 05:23:00,60.2,59.5,29.05,SE,135,2.0,2.0,98,0.00,,,0.25,Rainwise IP-100,2013-05-06 09:23:00,
2013-05-06 05:28:00,60.2,59.5,29.05,South,180,1.0,4.0,98,0.00,,,0.25,Rainwise IP-100,2013-05-06 09:28:00,
2013-05-06 05:33:00,60.1,59.5,29.05,South,180,1.0,3.0,98,0.00,,,0.25,Rainwise IP-100,2013-05-06 09:33:00,
2013-05-06 05:38:00,60.1,59.5,29.05,South,180,2.0,4.0,98,0.00,,,0.25,Rainwise IP-100,2013-05-06 09:38:00,
2013-05-06 05:43:00,60.2,59.5,29.05,SSE,157,1.0,5.0,98,0.00,,,0.25,Rainwise IP-100,2013-05-06 09:43:00,
2013-05-06 05:48:00,60.3,60.0,29.05,ESE,112,1.0,4.0,98,0.00,,,0.25,Rainwise IP-100,2013-05-06 09:48:00,
2013-05-06 05:53:00,60.3,60.0,29.06,SE,135,2.0,4.0,98,0.00,,,0.25,Rainwise IP-100,2013-05-06 09:53:00,
2013-05-06 05:58:00,60.3,60.0,29.06,South,180,2.0,4.0,98,0.00,,,0.25,Rainwise IP-100,2013-05-06 09:58:00,
2013-05-06 06:03:00,60.3,60.0,29.06,SE,135,2.0,2.0,98,0.00,,,0.25,Rainwise IP-100,2013-05-06 10:03:00,
2013-05-06 06:08:00,60.3,60.0,29.06,ESE,112,2.0,4.0,98,0.00,,,0.25,Rainwise IP-100,2013-05-06 10:08:00,
2013-05-06 06:13:00,60.1,59.5,29.06,SE,135,1.0,2.0,98,0.00,,,0.25,Rainwise IP-100,2013-05-06 10:13:00,
2013-05-06 06:18:00,59.9,59.5,29.06,SE,135,0.0,2.0,98,0.00,,,0.25,Rainwise IP-100,2013-05-06 10:18:00,
2013-05-06 06:23:00,59.9,59.5,29.06,SSE,157,1.0,2.0,98,0.00,,,0.25,Rainwise IP-100,2013-05-06 10:23:00,
2013-05-06 06:28:00,59.7,59.0,29.06,SSW,202,2.0,2.0,98,0.00,,,0.25,Rainwise IP-100,2013-05-06 10:28:00,
2013-05-06 06:33:00,59.6,59.0,29.06,SSW,202,2.0,2.0,98,0.00,,,0.25,Rainwise IP-100,2013-05-06 10:33:00,
2013-05-06 06:38:00,59.4,59.0,29.06,SSW,202,0.0,2.0,98,0.00,,,0.25,Rainwise IP-100,2013-05-06 10:38:00,
2013-05-06 06:43:00,59.2,58.0,29.06,SSW,202,0.0,0.0,98,0.00,,,0.25,Rainwise IP-100,2013-05-06 10:43:00,
2013-05-06 06:48:00,58.9,58.0,29.06,SSW,202,1.0,0.0,98,0.00,,,0.25,Rainwise IP-100,2013-05-06 10:48:00,
2013-05-06 06:53:00,58.9,58.0,29.06,NNW,337,0.0,2.0,98,0.00,,,0.25,Rainwise IP-100,2013-05-06 10:53:00,
2013-05-06 06:58:00,58.9,58.0,29.07,NNW,337,0.0,0.0,98,0.00,,,0.25,Rainwise IP-100,2013-05-06 10:58:00,
2013-05-06 07:03:00,58.8,58.0,29.07,NNW,337,0.0,0.0,98,0.00,,,0.25,Rainwise IP-100,2013-05-06 11:03:00,
2013-05-06 07:08:00,58.9,58.0,29.07,NNW,337,0.0,0.0,98,0.00,,,0.25,Rainwise IP-100,2013-05-06 11:08:00,
2013-05-06 07:13:00,59.1,58.0,29.07,NNW,337,0.0,0.0,98,0.00,,,0.25,Rainwise IP-100,2013-05-06 11:13:00,
2013-05-06 07:18:00,59.4,59.0,29.08,East,90,0.0,2.0,98,0.00,,,0.25,Rainwise IP-100,2013-05-06 11:18:00,
2013-05-06 07:23:00,59.6,59.0,29.09,East,90,2.0,2.0,98,0.00,,,0.25,Rainwise IP-100,2013-05-06 11:23:00,
2013-05-06 07:28:00,59.8,59.5,29.09,ESE,112,1.0,2.0,98,0.00,,,0.25,Rainwise IP-100,2013-05-06 11:28:00,
2013-05-06 07:33:00,59.9,59.5,29.10,SE,135,1.0,2.0,98,0.00,,,0.25,Rainwise IP-100,2013-05-06 11:33:00,
2013-05-06 07:38:00,60.2,59.5,29.11,ESE,112,2.0,4.0,98,0.00,,,0.25,Rainwise IP-100,2013-05-06 11:38:00,
2013-05-06 07:43:00,60.4,60.0,29.11,East,90,2.0,3.0,98,0.00,,,0.25,Rainwise IP-100,2013-05-06 11:43:00,
2013-05-06 07:48:00,60.5,60.0,29.11,East,90,1.0,2.0,98,0.00,,,0.25,Rainwise IP-100,2013-05-06 11:48:00,
2013-05-06 07:53:00,60.8,60.5,29.11,ESE,112,0.0,2.0,98,0.00,,,0.25,Rainwise IP-100,2013-05-06 11:53:00,
2013-05-06 07:58:00,60.9,60.5,29.12,ESE,112,2.0,2.0,98,0.00,,,0.25,Rainwise IP-100,2013-05-06 11:58:00,
2013-05-06 08:03:00,61.1,60.5,29.12,NE,45,0.0,2.0,98,0.00,,,0.25,Rainwise IP-100,2013-05-06 12:03:00,
2013-05-06 08:08:00,61.4,61.0,29.12,SE,135,2.0,2.0,98,0.00,,,0.25,Rainwise IP-100,2013-05-06 12:08:00,
2013-05-06 08:13:00,61.3,61.0,29.12,ESE,112,4.0,4.0,98,0.00,,,0.25,Rainwise IP-100,2013-05-06 12:13:00,
2013-05-06 08:18:00,61.3,61.0,29.12,SE,135,1.0,4.0,98,0.00,,,0.25,Rainwise IP-100,2013-05-06 12:18:00,
2013-05-06 08:23:00,61.3,61.0,29.12,East,90,1.0,4.0,98,0.00,,,0.25,Rainwise IP-100,2013-05-06 12:23:00,
2013-05-06 08:28:00,61.2,60.5,29.11,East,90,0.0,4.0,98,0.00,,,0.25,Rainwise IP-100,2013-05-06 12:28:00,
2013-05-06 08:33:00,61.3,61.0,29.11,ENE,67,1.0,2.0,98,0.00,,,0.25,Rainwise IP-100,2013-05-06 12:33:00,
2013-05-06 08:38:00,61.4,61.0,29.12,South,180,2.0,4.0,98,0.00,,,0.25,Rainwise IP-100,2013-05-06 12:38:00,
2013-05-06 08:43:00,61.5,61.0,29.13,South,180,0.0,4.0,98,0.00,,,0.25,Rainwise IP-100,2013-05-06 12:43:00,
2013-05-06 08:48:00,62.1,61.5,29.13,SE,135,2.0,3.0,98,0.00,,,0.25,Rainwise IP-100,2013-05-06 12:48:00,
2013-05-06 08:53:00,62.3,61.5,29.14,SSE,157,1.0,6.0,97,0.00,,,0.25,Rainwise IP-100,2013-05-06 12:53:00,
2013-05-06 08:58:00,62.9,61.5,29.15,East,90,4.0,4.0,95,0.00,,,0.25,Rainwise IP-100,2013-05-06 12:58:00,
2013-05-06 09:03:00,63.2,61.0,29.16,ESE,112,4.0,6.0,93,0.00,,,0.25,Rainwise IP-100,2013-05-06 13:03:00,
2013-05-06 09:08:00,63.7,60.5,29.17,ESE,112,4.0,5.0,90,0.00,,,0.25,Rainwise IP-100,2013-05-06 13:08:00,
2013-05-06 09:13:00,64.4,62.0,29.18,SSE,157,1.0,4.0,91,0.00,,,0.25,Rainwise IP-100,2013-05-06 13:13:00,
2013-05-06 09:18:00,64.6,61.0,29.19,ESE,112,1.0,6.0,88,0.00,,,0.25,Rainwise IP-100,2013-05-06 13:18:00,
2013-05-06 09:23:00,64.6,61.0,29.19,ESE,112,3.0,6.0,88,0.00,,,0.25,Rainwise IP-100,2013-05-06 13:23:00,
2013-05-06 09:28:00,64.4,60.5,29.19,SE,135,2.0,7.0,87,0.00,,,0.25,Rainwise IP-100,2013-05-06 13:28:00,
2013-05-06 09:33:00,64.9,60.0,29.20,SE,135,2.0,5.0,84,0.00,,,0.25,Rainwise IP-100,2013-05-06 13:33:00,
2013-05-06 09:38:00,64.6,60.0,29.20,East,90,1.0,5.0,86,0.00,,,0.25,Rainwise IP-100,2013-05-06 13:38:00,
2013-05-06 09:43:00,64.4,60.5,29.19,SSE,157,2.0,4.0,87,0.00,,,0.25,Rainwise IP-100,2013-05-06 13:43:00,
2013-05-06 09:48:00,64.1,59.5,29.19,SE,135,2.0,4.0,85,0.00,,,0.25,Rainwise IP-100,2013-05-06 13:48:00,
2013-05-06 09:53:00,63.7,59.5,29.17,ESE,112,3.0,6.0,86,0.00,,,0.25,Rainwise IP-100,2013-05-06 13:53:00,
2013-05-06 09:58:00,63.6,60.0,29.17,East,90,1.0,5.0,88,0.00,,,0.25,Rainwise IP-100,2013-05-06 13:58:00,
2013-05-06 10:03:00,63.7,60.0,29.16,ESE,112,1.0,3.0,88,0.00,,,0.25,Rainwise IP-100,2013-05-06 14:03:00,
2013-05-06 10:08:00,63.7,60.0,29.16,ESE,112,2.0,2.0,88,0.00,,,0.25,Rainwise IP-100,2013-05-06 14:08:00,
2013-05-06 10:13:00,64.3,60.5,29.16,NE,45,0.0,2.0,87,0.00,,,0.25,Rainwise IP-100,2013-05-06 14:13:00,
2013-05-06 10:18:00,64.3,59.5,29.16,West,270,0.0,2.0,83,0.00,,,0.25,Rainwise IP-100,2013-05-06 14:18:00,
2013-05-06 10:23:00,64.3,60.0,29.16,WSW,247,1.0,3.0,85,0.00,,,0.25,Rainwise IP-100,2013-05-06 14:23:00,
2013-05-06 10:28:00,63.9,60.0,29.16,WSW,247,1.0,4.0,87,0.00,,,0.25,Rainwise IP-100,2013-05-06 14:28:00,
2013-05-06 10:33:00,63.9,59.5,29.16,SW,225,1.0,2.0,85,0.00,,,0.25,Rainwise IP-100,2013-05-06 14:33:00,
2013-05-06 10:38:00,64.2,59.0,29.16,SW,225,0.0,2.0,84,0.00,,,0.25,Rainwise IP-100,2013-05-06 14:38:00,
2013-05-06 10:43:00,64.4,59.5,29.16,South,180,1.0,2.0,83,0.00,,,0.25,Rainwise IP-100,2013-05-06 14:43:00,
2013-05-06 10:48:00,64.4,59.5,29.16,WSW,247,2.0,4.0,83,0.00,,,0.25,Rainwise IP-100,2013-05-06 14:48:00,
2013-05-06 10:53:00,64.3,59.5,29.16,WSW,247,2.0,3.0,84,0.00,,,0.25,Rainwise IP-100,2013-05-06 14:53:00,
2013-05-06 10:58:00,64.3,59.5,29.17,WSW,247,2.0,3.0,84,0.00,,,0.25,Rainwise IP-100,2013-05-06 14:58:00,
2013-05-06 11:03:00,64.3,59.5,29.17,SW,225,2.0,3.0,84,0.00,,,0.25,Rainwise IP-100,2013-05-06 15:03:00,
2013-05-06 11:08:00,64.4,59.5,29.17,WSW,247,2.0,5.0,84,0.00,,,0.25,Rainwise IP-100,2013-05-06 15:08:00,
2013-05-06 11:13:00,64.3,59.0,29.17,SW,225,2.0,5.0,82,0.00,,,0.25,Rainwise IP-100,2013-05-06 15:13:00,
2013-05-06 11:18:00,64.9,59.0,29.18,WSW,247,2.0,4.0,81,0.00,,,0.25,Rainwise IP-100,2013-05-06 15:18:00,
2013-05-06 11:23:00,65.6,58.0,29.18,SE,135,2.0,3.0,78,0.00,,,0.25,Rainwise IP-100,2013-05-06 15:23:00,
2013-05-06 11:28:00,66.4,57.5,29.19,SW,225,1.0,7.0,74,0.00,,,0.25,Rainwise IP-100,2013-05-06 15:28:00,
2013-05-06 11:33:00,66.9,56.5,29.21,South,180,2.0,8.0,69,0.00,,,0.25,Rainwise IP-100,2013-05-06 15:33:00,
2013-05-06 11:38:00,67.0,58.0,29.21,SW,225,2.0,7.0,73,0.00,,,0.25,Rainwise IP-100,2013-05-06 15:38:00,
2013-05-06 11:43:00,66.3,57.5,29.21,SW,225,1.0,8.0,74,0.00,,,0.25,Rainwise IP-100,2013-05-06 15:43:00,
2013-05-06 11:48:00,66.3,57.5,29.20,SW,225,4.0,6.0,74,0.00,,,0.25,Rainwise IP-100,2013-05-06 15:48:00,
2013-05-06 11:53:00,66.7,57.5,29.19,South,180,2.0,8.0,73,0.00,,,0.25,Rainwise IP-100,2013-05-06 15:53:00,
2013-05-06 11:58:00,67.7,58.0,29.20,WNW,292,0.0,5.0,72,0.00,,,0.25,Rainwise IP-100,2013-05-06 15:58:00,
2013-05-06 12:03:00,67.4,55.0,29.21,WSW,247,9.0,13.0,64,0.00,,,0.25,Rainwise IP-100,2013-05-06 16:03:00,
2013-05-06 12:08:00,66.9,55.0,29.21,SW,225,4.0,9.0,66,0.00,,,0.25,Rainwise IP-100,2013-05-06 16:08:00,
2013-05-06 12:13:00,66.7,55.0,29.20,SSW,202,5.0,9.0,67,0.00,,,0.25,Rainwise IP-100,2013-05-06 16:13:00,
2013-05-06 12:18:00,66.1,57.0,29.19,West,270,9.0,11.0,74,0.00,,,0.25,Rainwise IP-100,2013-05-06 16:18:00,
2013-05-06 12:23:00,65.5,58.0,29.19,West,270,4.0,10.0,77,0.00,,,0.25,Rainwise IP-100,2013-05-06 16:23:00,
2013-05-06 12:28:00,66.0,58.0,29.19,WSW,247,3.0,9.0,76,0.00,,,0.25,Rainwise IP-100,2013-05-06 16:28:00,
2013-05-06 12:33:00,66.9,59.0,29.18,West,270,5.0,8.0,74,0.00,,,0.25,Rainwise IP-100,2013-05-06 16:33:00,
2013-05-06 12:38:00,67.3,56.5,29.19,SE,135,4.0,9.0,68,0.00,,,0.25,Rainwise IP-100,2013-05-06 16:38:00,
2013-05-06 12:43:00,67.4,57.0,29.19,WSW,247,3.0,9.0,69,0.00,,,0.25,Rainwise IP-100,2013-05-06 16:43:00,
2013-05-06 12:48:00,68.3,54.5,29.19,SW,225,1.0,8.0,62,0.00,,,0.25,Rainwise IP-100,2013-05-06 16:48:00,
2013-05-06 12:53:00,68.4,55.0,29.19,SW,225,1.0,9.0,63,0.00,,,0.25,Rainwise IP-100,2013-05-06 16:53:00,
2013-05-06 12:58:00,68.1,56.0,29.19,West,270,8.0,12.0,65,0.00,,,0.25,Rainwise IP-100,2013-05-06 16:58:00,
2013-05-06 13:03:00,68.7,54.5,29.18,SW,225,5.0,9.0,62,0.00,,,0.25,Rainwise IP-100,2013-05-06 17:03:00,
2013-05-06 13:08:00,69.2,53.0,29.18,SW,225,2.0,13.0,56,0.00,,,0.25,Rainwise IP-100,2013-05-06 17:08:00,
2013-05-06 13:13:00,69.8,50.5,29.18,SSE,157,5.0,9.0,51,0.00,,,0.25,Rainwise IP-100,2013-05-06 17:13:00,
2013-05-06 13:18:00,70.2,50.0,29.18,SE,135,4.0,8.0,49,0.00,,,0.25,Rainwise IP-100,2013-05-06 17:18:00,
2013-05-06 13:23:00,70.1,50.5,29.19,WSW,247,1.0,11.0,50,0.00,,,0.25,Rainwise IP-100,2013-05-06 17:23:00,
2013-05-06 13:28:00,70.3,50.5,29.19,SW,225,2.0,9.0,49,0.00,,,0.25,Rainwise IP-100,2013-05-06 17:28:00,
2013-05-06 13:33:00,70.7,49.0,29.19,SW,225,2.0,9.0,46,0.00,,,0.25,Rainwise IP-100,2013-05-06 17:33:00,
2013-05-06 13:38:00,70.2,48.0,29.19,SW,225,4.0,11.0,46,0.00,,,0.25,Rainwise IP-100,2013-05-06 17:38:00,
2013-05-06 13:43:00,69.5,48.0,29.18,West,270,5.0,11.0,47,0.00,,,0.25,Rainwise IP-100,2013-05-06 17:43:00,
2013-05-06 13:48:00,70.1,49.0,29.18,SW,225,7.0,12.0,47,0.00,,,0.25,Rainwise IP-100,2013-05-06 17:48:00,
2013-05-06 13:53:00,69.7,48.0,29.18,SSW,202,4.0,11.0,47,0.00,,,0.25,Rainwise IP-100,2013-05-06 17:53:00,
2013-05-06 13:58:00,69.7,52.0,29.18,West,270,2.0,9.0,53,0.00,,,0.25,Rainwise IP-100,2013-05-06 17:58:00,
2013-05-06 14:03:00,68.9,53.0,29.18,SW,225,6.0,17.0,56,0.00,,,0.25,Rainwise IP-100,2013-05-06 18:03:00,
2013-05-06 14:08:00,68.4,53.5,29.18,West,270,1.0,13.0,59,0.00,,,0.25,Rainwise IP-100,2013-05-06 18:08:00,
2013-05-06 14:13:00,67.2,54.0,29.17,SW,225,4.0,14.0,62,0.00,,,0.25,Rainwise IP-100,2013-05-06 18:13:00,
2013-05-06 14:18:00,67.2,54.0,29.17,West,270,12.0,12.0,62,0.00,,,0.25,Rainwise IP-100,2013-05-06 18:18:00,
2013-05-06 14:23:00,66.9,54.0,29.16,West,270,8.0,12.0,62,0.00,,,0.25,Rainwise IP-100,2013-05-06 18:23:00,
2013-05-06 14:28:00,67.4,53.5,29.17,WNW,292,6.0,12.0,61,0.00,,,0.25,Rainwise IP-100,2013-05-06 18:28:00,
2013-05-06 14:33:00,67.7,53.0,29.17,SW,225,2.0,13.0,59,0.00,,,0.25,Rainwise IP-100,2013-05-06 18:33:00,
2013-05-06 14:38:00,66.6,53.0,29.17,SW,225,3.0,17.0,61,0.00,,,0.25,Rainwise IP-100,2013-05-06 18:38:00,
2013-05-06 14:43:00,66.9,53.0,29.16,West,270,6.0,11.0,60,0.00,,,0.25,Rainwise IP-100,2013-05-06 18:43:00,
2013-05-06 14:48:00,66.9,53.0,29.16,West,270,7.0,11.0,59,0.00,,,0.25,Rainwise IP-100,2013-05-06 18:48:00,
2013-05-06 14:53:00,66.9,53.0,29.16,West,270,6.0,16.0,59,0.00,,,0.25,Rainwise IP-100,2013-05-06 18:53:00,
2013-05-06 14:58:00,67.1,53.0,29.16,SW,225,5.0,18.0,60,0.00,,,0.25,Rainwise IP-100,2013-05-06 18:58:00,
2013-05-06 15:03:00,67.5,51.0,29.16,West,270,6.0,16.0,56,0.00,,,0.25,Rainwise IP-100,2013-05-06 19:03:00,
2013-05-06 15:08:00,67.5,52.0,29.16,West,270,7.0,17.0,57,0.00,,,0.25,Rainwise IP-100,2013-05-06 19:08:00,
2013-05-06 15:13:00,67.6,52.0,29.16,WSW,247,5.0,12.0,57,0.00,,,0.25,Rainwise IP-100,2013-05-06 19:13:00,
2013-05-06 15:18:00,67.9,51.0,29.16,WSW,247,7.0,11.0,55,0.00,,,0.25,Rainwise IP-100,2013-05-06 19:18:00,
2013-05-06 15:23:00,67.6,52.0,29.16,West,270,7.0,12.0,57,0.00,,,0.25,Rainwise IP-100,2013-05-06 19:23:00,
2013-05-06 15:28:00,68.5,52.0,29.16,SW,225,4.0,10.0,55,0.00,,,0.25,Rainwise IP-100,2013-05-06 19:28:00,
2013-05-06 15:33:00,68.6,50.0,29.17,West,270,9.0,11.0,52,0.00,,,0.25,Rainwise IP-100,2013-05-06 19:33:00,
2013-05-06 15:38:00,68.6,50.0,29.17,SW,225,5.0,13.0,51,0.00,,,0.25,Rainwise IP-100,2013-05-06 19:38:00,
2013-05-06 15:43:00,68.7,50.0,29.17,SW,225,6.0,11.0,51,0.00,,,0.25,Rainwise IP-100,2013-05-06 19:43:00,
2013-05-06 15:48:00,68.7,48.0,29.17,WSW,247,8.0,12.0,48,0.00,,,0.25,Rainwise IP-100,2013-05-06 19:48:00,
2013-05-06 15:53:00,68.8,48.0,29.17,SSE,157,2.0,12.0,48,0.00,,,0.25,Rainwise IP-100,2013-05-06 19:53:00,
2013-05-06 15:58:00,68.9,49.0,29.17,South,180,4.0,11.0,49,0.00,,,0.25,Rainwise IP-100,2013-05-06 19:58:00,
2013-05-06 16:03:00,68.9,49.0,29.17,SW,225,7.0,9.0,49,0.00,,,0.25,Rainwise IP-100,2013-05-06 20:03:00,
2013-05-06 16:08:00,69.3,49.0,29.17,West,270,4.0,9.0,48,0.00,,,0.25,Rainwise IP-100,2013-05-06 20:08:00,
2013-05-06 16:13:00,69.2,49.0,29.18,SW,225,5.0,13.0,48,0.00,,,0.25,Rainwise IP-100,2013-05-06 20:13:00,
2013-05-06 16:18:00,68.2,49.0,29.17,SW,225,4.0,9.0,50,0.00,,,0.25,Rainwise IP-100,2013-05-06 20:18:00,
2013-05-06 16:23:00,68.4,49.0,29.17,NW,315,6.0,6.0,50,0.00,,,0.25,Rainwise IP-100,2013-05-06 20:23:00,
2013-05-06 16:28:00,68.9,47.5,29.16,SE,135,3.0,6.0,47,0.00,,,0.25,Rainwise IP-100,2013-05-06 20:28:00,
2013-05-06 16:33:00,69.4,50.0,29.17,West,270,4.0,9.0,50,0.00,,,0.25,Rainwise IP-100,2013-05-06 20:33:00,
2013-05-06 16:38:00,67.9,49.0,29.17,SW,225,3.0,12.0,51,0.00,,,0.25,Rainwise IP-100,2013-05-06 20:38:00,
2013-05-06 16:43:00,67.5,48.0,29.17,WSW,247,2.0,7.0,50,0.00,,,0.25,Rainwise IP-100,2013-05-06 20:43:00,
2013-05-06 16:48:00,68.7,49.0,29.16,SW,225,1.0,6.0,50,0.00,,,0.25,Rainwise IP-100,2013-05-06 20:48:00,
2013-05-06 16:53:00,69.2,47.0,29.17,WSW,247,2.0,12.0,45,0.00,,,0.25,Rainwise IP-100,2013-05-06 20:53:00,
2013-05-06 16:58:00,68.9,45.0,29.17,WNW,292,3.0,12.0,42,0.00,,,0.25,Rainwise IP-100,2013-05-06 20:58:00,
2013-05-06 17:03:00,69.5,43.0,29.17,WSW,247,2.0,11.0,39,0.00,,,0.25,Rainwise IP-100,2013-05-06 21:03:00,
2013-05-06 17:08:00,68.8,45.0,29.17,South,180,6.0,14.0,42,0.00,,,0.25,Rainwise IP-100,2013-05-06 21:08:00,
2013-05-06 17:13:00,68.9,45.0,29.17,West,270,4.0,8.0,42,0.00,,,0.25,Rainwise IP-100,2013-05-06 21:13:00,
2013-05-06 17:18:00,69.6,45.0,29.17,NW,315,1.0,7.0,41,0.00,,,0.25,Rainwise IP-100,2013-05-06 21:18:00,
2013-05-06 17:23:00,69.4,45.0,29.18,West,270,3.0,8.0,41,0.00,,,0.25,Rainwise IP-100,2013-05-06 21:23:00,
2013-05-06 17:28:00,69.3,46.0,29.18,West,270,1.0,7.0,43,0.00,,,0.25,Rainwise IP-100,2013-05-06 21:28:00,
2013-05-06 17:33:00,69.1,46.0,29.18,WSW,247,5.0,11.0,44,0.00,,,0.25,Rainwise IP-100,2013-05-06 21:33:00,
2013-05-06 17:38:00,69.1,46.0,29.18,WSW,247,3.0,10.0,44,0.00,,,0.25,Rainwise IP-100,2013-05-06 21:38:00,
2013-05-06 17:43:00,68.4,47.5,29.18,WSW,247,2.0,10.0,47,0.00,,,0.25,Rainwise IP-100,2013-05-06 21:43:00,
2013-05-06 17:48:00,68.3,47.0,29.17,West,270,1.0,6.0,46,0.00,,,0.25,Rainwise IP-100,2013-05-06 21:48:00,
2013-05-06 17:53:00,68.4,47.0,29.17,West,270,2.0,9.0,46,0.00,,,0.25,Rainwise IP-100,2013-05-06 21:53:00,
2013-05-06 17:58:00,68.8,47.5,29.17,NW,315,0.0,6.0,46,0.00,,,0.25,Rainwise IP-100,2013-05-06 21:58:00,
2013-05-06 18:03:00,68.7,47.0,29.17,SSW,202,0.0,6.0,45,0.00,,,0.25,Rainwise IP-100,2013-05-06 22:03:00,
2013-05-06 18:08:00,67.9,48.0,29.16,West,270,4.0,8.0,49,0.00,,,0.25,Rainwise IP-100,2013-05-06 22:08:00,
2013-05-06 18:13:00,67.6,47.5,29.16,West,270,2.0,6.0,49,0.00,,,0.25,Rainwise IP-100,2013-05-06 22:13:00,
2013-05-06 18:18:00,67.5,48.0,29.15,WSW,247,2.0,4.0,50,0.00,,,0.25,Rainwise IP-100,2013-05-06 22:18:00,
2013-05-06 18:23:00,67.7,47.5,29.15,WSW,247,3.0,5.0,48,0.00,,,0.25,Rainwise IP-100,2013-05-06 22:23:00,
2013-05-06 18:28:00,67.9,48.0,29.15,SW,225,1.0,7.0,49,0.00,,,0.25,Rainwise IP-100,2013-05-06 22:28:00,
2013-05-06 18:33:00,68.2,47.5,29.16,WSW,247,2.0,7.0,48,0.00,,,0.25,Rainwise IP-100,2013-05-06 22:33:00,
2013-05-06 18:38:00,68.4,48.0,29.16,WSW,247,4.0,7.0,49,0.00,,,0.25,Rainwise IP-100,2013-05-06 22:38:00,
2013-05-06 18:43:00,68.1,48.0,29.16,WSW,247,1.0,7.0,49,0.00,,,0.25,Rainwise IP-100,2013-05-06 22:43:00,
2013-05-06 18:48:00,67.5,48.0,29.16,WSW,247,2.0,6.0,50,0.00,,,0.25,Rainwise IP-100,2013-05-06 22:48:00,
2013-05-06 18:53:00,67.4,49.0,29.15,SW,225,2.0,4.0,51,0.00,,,0.25,Rainwise IP-100,2013-05-06 22:53:00,
2013-05-06 18:58:00,67.9,48.0,29.15,West,270,3.0,4.0,49,0.00,,,0.25,Rainwise IP-100,2013-05-06 22:58:00,
2013-05-06 19:03:00,68.1,47.5,29.15,SW,225,1.0,4.0,48,0.00,,,0.25,Rainwise IP-100,2013-05-06 23:03:00,
2013-05-06 19:08:00,67.9,49.0,29.16,WSW,247,2.0,4.0,50,0.00,,,0.25,Rainwise IP-100,2013-05-06 23:08:00,
2013-05-06 19:13:00,67.5,49.0,29.16,SW,225,2.0,6.0,51,0.00,,,0.25,Rainwise IP-100,2013-05-06 23:13:00,
2013-05-06 19:18:00,67.5,49.0,29.15,West,270,2.0,5.0,52,0.00,,,0.25,Rainwise IP-100,2013-05-06 23:18:00,
2013-05-06 19:23:00,67.0,50.0,29.15,West,270,1.0,5.0,53,0.00,,,0.25,Rainwise IP-100,2013-05-06 23:23:00,
2013-05-06 19:28:00,66.9,50.0,29.15,SW,225,2.0,2.0,54,0.00,,,0.25,Rainwise IP-100,2013-05-06 23:28:00,
2013-05-06 19:33:00,66.5,50.0,29.14,WSW,247,1.0,3.0,55,0.00,,,0.25,Rainwise IP-100,2013-05-06 23:33:00,
2013-05-06 19:38:00,66.2,49.0,29.14,SW,225,2.0,2.0,54,0.00,,,0.25,Rainwise IP-100,2013-05-06 23:38:00,
2013-05-06 19:43:00,66.0,50.0,29.13,SW,225,1.0,3.0,56,0.00,,,0.25,Rainwise IP-100,2013-05-06 23:43:00,
2013-05-06 19:48:00,65.9,50.0,29.13,SW,225,1.0,2.0,56,0.00,,,0.25,Rainwise IP-100,2013-05-06 23:48:00,
2013-05-06 19:53:00,65.9,50.0,29.13,West,270,1.0,2.0,57,0.00,,,0.25,Rainwise IP-100,2013-05-06 23:53:00,
2013-05-06 19:58:00,65.7,50.0,29.13,West,270,1.0,2.0,57,0.00,,,0.25,Rainwise IP-100,2013-05-06 23:58:00,
2013-05-06 20:03:00,65.7,50.5,29.13,West,270,2.0,2.0,58,0.00,,,0.25,Rainwise IP-100,2013-05-07 00:03:00,
2013-05-06 20:08:00,65.3,51.0,29.13,West,270,2.0,2.0,61,0.00,,,0.25,Rainwise IP-100,2013-05-07 00:08:00,
2013-05-06 20:13:00,64.9,52.0,29.13,West,270,1.0,2.0,63,0.00,,,0.25,Rainwise IP-100,2013-05-07 00:13:00,
2013-05-06 20:18:00,64.4,53.0,29.13,West,270,1.0,2.0,65,0.00,,,0.25,Rainwise IP-100,2013-05-07 00:18:00,
2013-05-06 20:23:00,64.0,52.0,29.13,West,270,1.0,2.0,65,0.00,,,0.25,Rainwise IP-100,2013-05-07 00:23:00,
2013-05-06 20:28:00,63.8,52.0,29.13,West,270,1.0,2.0,65,0.00,,,0.25,Rainwise IP-100,2013-05-07 00:28:00,
2013-05-06 20:33:00,63.4,53.0,29.13,West,270,1.0,2.0,67,0.00,,,0.25,Rainwise IP-100,2013-05-07 00:33:00,
2013-05-06 20:38:00,63.2,53.5,29.12,West,270,1.0,2.0,70,0.00,,,0.25,Rainwise IP-100,2013-05-07 00:38:00,
2013-05-06 20:43:00,62.9,53.5,29.12,SW,225,1.0,2.0,70,0.00,,,0.25,Rainwise IP-100,2013-05-07 00:43:00,
2013-05-06 20:48:00,62.7,53.0,29.12,WSW,247,4.0,4.0,71,0.00,,,0.25,Rainwise IP-100,2013-05-07 00:48:00,
2013-05-06 20:53:00,62.3,53.0,29.12,West,270,3.0,7.0,71,0.00,,,0.25,Rainwise IP-100,2013-05-07 00:53:00,
2013-05-06 20:58:00,61.9,53.0,29.12,West,270,4.0,7.0,71,0.00,,,0.25,Rainwise IP-100,2013-05-07 00:58:00,
2013-05-06 21:03:00,61.7,52.0,29.11,West,270,2.0,6.0,71,0.00,,,0.25,Rainwise IP-100,2013-05-07 01:03:00,
2013-05-06 21:08:00,61.5,52.0,29.11,West,270,1.0,4.0,71,0.00,,,0.25,Rainwise IP-100,2013-05-07 01:08:00,
2013-05-06 21:13:00,61.3,52.0,29.11,WSW,247,4.0,4.0,71,0.00,,,0.25,Rainwise IP-100,2013-05-07 01:13:00,
2013-05-06 21:18:00,61.2,51.0,29.11,WSW,247,2.0,5.0,71,0.00,,,0.25,Rainwise IP-100,2013-05-07 01:18:00,
2013-05-06 21:23:00,61.0,51.0,29.12,SW,225,0.0,4.0,71,0.00,,,0.25,Rainwise IP-100,2013-05-07 01:23:00,
2013-05-06 21:28:00,61.0,51.0,29.12,West,270,1.0,6.0,71,0.00,,,0.25,Rainwise IP-100,2013-05-07 01:28:00,
2013-05-06 21:33:00,60.9,51.0,29.12,West,270,2.0,4.0,71,0.00,,,0.25,Rainwise IP-100,2013-05-07 01:33:00,
2013-05-06 21:38:00,60.7,51.0,29.12,West,270,2.0,3.0,72,0.00,,,0.25,Rainwise IP-100,2013-05-07 01:38:00,
2013-05-06 21:43:00,60.4,52.0,29.12,West,270,3.0,3.0,73,0.00,,,0.25,Rainwise IP-100,2013-05-07 01:43:00,
2013-05-06 21:48:00,60.2,51.0,29.11,West,270,3.0,4.0,74,0.00,,,0.25,Rainwise IP-100,2013-05-07 01:48:00,
2013-05-06 21:53:00,60.1,51.0,29.11,West,270,6.0,7.0,73,0.00,,,0.25,Rainwise IP-100,2013-05-07 01:53:00,
2013-05-06 21:58:00,60.1,51.0,29.12,West,270,2.0,6.0,73,0.00,,,0.25,Rainwise IP-100,2013-05-07 01:58:00,
2013-05-06 22:03:00,59.9,51.0,29.12,West,270,3.0,5.0,74,0.00,,,0.25,Rainwise IP-100,2013-05-07 02:03:00,
2013-05-06 22:08:00,59.7,51.0,29.12,West,270,2.0,4.0,74,0.00,,,0.25,Rainwise IP-100,2013-05-07 02:08:00,
2013-05-06 22:13:00,59.5,51.0,29.12,West,270,3.0,4.0,75,0.00,,,0.25,Rainwise IP-100,2013-05-07 02:13:00,
2013-05-06 22:18:00,59.3,51.0,29.12,West,270,3.0,4.0,75,0.00,,,0.25,Rainwise IP-100,2013-05-07 02:18:00,
2013-05-06 22:23:00,59.2,51.0,29.12,SW,225,1.0,3.0,75,0.00,,,0.25,Rainwise IP-100,2013-05-07 02:23:00,
2013-05-06 22:28:00,58.9,51.0,29.12,WSW,247,3.0,3.0,76,0.00,,,0.25,Rainwise IP-100,2013-05-07 02:28:00,
2013-05-06 22:33:00,58.9,51.0,29.12,WSW,247,2.0,4.0,76,0.00,,,0.25,Rainwise IP-100,2013-05-07 02:33:00,
2013-05-06 22:38:00,58.8,51.0,29.12,SW,225,3.0,6.0,76,0.00,,,0.25,Rainwise IP-100,2013-05-07 02:38:00,
2013-05-06 22:43:00,58.6,52.0,29.12,West,270,2.0,6.0,77,0.00,,,0.25,Rainwise IP-100,2013-05-07 02:43:00,
2013-05-06 22:48:00,58.4,51.0,29.12,WSW,247,2.0,3.0,78,0.00,,,0.25,Rainwise IP-100,2013-05-07 02:48:00,
2013-05-06 22:53:00,58.2,51.0,29.12,West,270,2.0,3.0,78,0.00,,,0.25,Rainwise IP-100,2013-05-07 02:53:00,
2013-05-06 22:58:00,58.0,52.0,29.12,SW,225,3.0,3.0,79,0.00,,,0.25,Rainwise IP-100,2013-05-07 02:58:00,
2013-05-06 23:03:00,57.9,51.0,29.11,West,270,3.0,6.0,78,0.00,,,0.25,Rainwise IP-100,2013-05-07 03:03:00,
2013-05-06 23:08:00,57.7,51.0,29.11,WSW,247,2.0,4.0,79,0.00,,,0.25,Rainwise IP-100,2013-05-07 03:08:00,
2013-05-06 23:13:00,57.5,51.0,29.11,WSW,247,2.0,4.0,79,0.00,,,0.25,Rainwise IP-100,2013-05-07 03:13:00,
2013-05-06 23:18:00,57.4,51.0,29.11,West,270,2.0,6.0,79,0.00,,,0.25,Rainwise IP-100,2013-05-07 03:18:00,
2013-05-06 23:23:00,57.3,50.5,29.11,WSW,247,2.0,6.0,78,0.00,,,0.25,Rainwise IP-100,2013-05-07 03:23:00,
2013-05-06 23:28:00,57.1,50.5,29.11,SW,225,4.0,6.0,78,0.00,,,0.25,Rainwise IP-100,2013-05-07 03:28:00,
2013-05-06 23:33:00,56.9,50.5,29.11,SW,225,1.0,4.0,79,0.00,,,0.25,Rainwise IP-100,2013-05-07 03:33:00,
2013-05-06 23:38:00,56.8,50.5,29.11,SW,225,0.0,3.0,79,0.00,,,0.25,Rainwise IP-100,2013-05-07 03:38:00,
2013-05-06 23:43:00,56.7,50.5,29.11,WSW,247,2.0,2.0,80,0.00,,,0.25,Rainwise IP-100,2013-05-07 03:43:00,
2013-05-06 23:48:00,56.5,50.5,29.11,WSW,247,2.0,3.0,80,0.00,,,0.25,Rainwise IP-100,2013-05-07 03:48:00,
2013-05-06 23:53:00,56.4,50.5,29.11,West,270,1.0,2.0,81,0.00,,,0.25,Rainwise IP-100,2013-05-07 03:53:00,
2013-05-06 23:58:00,56.0,50.5,29.10,West,270,1.0,2.0,83,0.00,,,0.25,Rainwise IP-100,2013-05-07 03:58:00,